Terug naar catalogus

METEOSAT 7

ActiefWeerGEO
NORAD 24932·PAYLOAD·🇪🇺 EU

Gelanceerd Sep 2, 1997 vanaf Guiana Space Centre

Loading…

TLE

VersSource: Space-Track

Epoch: Sep 14, 2026, 14:19 UTC

1 24932U 97049B   26257.59706378 -.00000235  00000-0  00000-0 0  9997
2 24932  13.7873  14.3213 0007054  62.8372 293.3815  0.98311997105621

Volg METEOSAT 7 in realtime met AllMySat

Download on the App Store